FW8315 Weather Reports


Display with metric or nautical units.
time (UTC)temp
F
wind
direction
speed
MPH
gust
MPH
rain 1hr
in
rain 24hr
in
rain mn
in
humidity
%
barometer
mb
20260504033019 38 300 3.0 6.0 0.00 0.00 0.00 84 1015.0
20260504032024 38 300 4.0 8.0 0.00 0.00 0.00 84 1014.8
20260504031029 38 299 4.0 7.0 0.00 0.00 0.00 83 1014.9
20260504030017 38 302 4.0 8.0 0.00 0.00 0.00 83 1014.9
20260504025022 38 297 4.0 7.0 0.00 0.00 0.00 83 1014.9
20260504024027 38 302 3.0 6.0 0.00 0.00 0.00 83 1014.9
20260504023032 38 304 4.0 8.0 0.00 0.00 0.00 83 1014.8
20260504022020 38 292 4.0 7.0 0.00 0.00 0.00 83 1015.0
20260504021025 38 288 3.0 7.0 0.00 0.00 0.00 83 1015.1
20260504020029 39 290 4.0 8.0 0.00 0.00 0.00 82 1015.1
20260504015018 39 296 4.0 8.0 0.00 0.00 0.00 82 1015.3
20260504014023 39 307 4.0 7.0 0.00 0.00 0.00 81 1015.3
20260504013028 39 302 4.0 7.0 0.00 0.00 0.00 81 1015.5
20260504012015 39 300 4.0 8.0 0.00 0.00 0.00 82 1015.5
20260504011020 39 300 3.0 6.0 0.00 0.00 0.00 82 1015.7
20260504010025 39 296 2.0 4.0 0.00 0.00 0.00 82 1015.7
20260504005030 39 302 1.0 3.0 0.00 0.00 0.00 81 1015.8
20260504004018 39 302 0.0 2.0 0.00 0.00 0.00 80 1015.8
20260504003023 39 302 2.0 3.0 0.00 0.00 0.00 79 1015.9
20260504002028 39 302 1.0 4.0 0.00 0.00 0.00 79 1016.1
20260504001016 39 303 2.0 6.0 0.00 0.00 0.00 78 1016.1
20260504000021 39 305 1.0 4.0 0.00 0.00 0.00 78 1016.2
20260503235026 39 303 3.0 4.0 0.00 0.00 0.00 78 1016.2
20260503234031 39 307 1.0 4.0 0.00 0.00 0.00 79 1016.2
20260503233019 39 309 2.0 4.0 0.00 0.00 0.00 79 1016.3
20260503232024 39 305 3.0 8.0 0.00 0.00 0.00 79 1016.4
20260503231029 39 308 2.0 4.0 0.00 0.00 0.00 79 1016.5
20260503230017 39 304 3.0 6.0 0.00 0.00 0.00 80 1016.7
20260503225022 38 305 3.0 4.0 0.00 0.00 0.00 80 1016.8
20260503224027 38 305 2.0 4.0 0.00 0.00 0.00 80 1016.8
20260503223032 38 305 1.0 3.0 0.00 0.00 0.00 81 1016.8
20260503222020 39 305 1.0 4.0 0.00 0.00 0.00 80 1016.7
20260503221025 38 319 3.0 4.0 0.00 0.00 0.00 81 1016.7
20260503220030 38 27 0.0 3.0 0.00 0.00 0.00 82 1016.8
20260503215018 38 28 1.0 3.0 0.00 0.00 0.00 82 1016.8
20260503214023 38 28 0.0 0.0 0.00 0.00 0.00 81 1016.8
20260503213028 38 28 0.0 0.0 0.00 0.00 0.00 81 1016.9
20260503212016 39 28 0.0 0.0 0.00 0.00 0.00 80 1016.8
20260503211021 39 28 0.0 0.0 0.00 0.00 0.00 80 1016.9
20260503210026 39 28 0.0 0.0 0.00 0.00 0.00 81 1016.8
20260503205031 39 28 1.0 3.0 0.00 0.00 0.00 81 1017.0
20260503204019 39 28 1.0 3.0 0.00 0.00 0.00 80 1017.1
20260503203023 39 28 1.0 2.0 0.00 0.00 0.00 79 1017.2
20260503202028 40 28 0.0 0.0 0.00 0.00 0.00 79 1017.1
20260503201037 40 28 0.0 0.0 0.00 0.00 0.00 79 1017.3
20260503192024 41 51 0.0 0.0 0.00 0.00 0.00 76 1017.8
20260503191029 41 51 0.0 0.0 0.00 0.00 0.00 76 1018.0
20260503190017 42 51 0.0 0.0 0.00 0.00 0.00 75 1018.1
20260503185022 42 51 0.0 0.0 0.00 0.00 0.00 74 1018.2
20260503184048 43 51 0.0 0.0 0.00 0.00 0.00 73 1018.2
20260503175018 45 51 0.0 0.0 0.00 0.00 0.00 68 1018.1
20260503174023 46 51 0.0 3.0 0.00 0.00 0.00 67 1018.2
20260503173028 46 46 3.0 4.0 0.00 0.00 0.00 67 1018.2
20260503172016 47 47 3.0 6.0 0.00 0.00 0.00 66 1018.1
20260503171021 48 42 3.0 6.0 0.00 0.00 0.00 64 1018.0
20260503131022 56 44 10.0 18.0 0.00 0.00 0.00 49 1018.6
20260503081017 51 29 9.0 17.0 0.00 0.00 0.00 70 1020.5
20260503072025 51 18 8.0 16.0 0.00 0.00 0.00 75 1020.4
20260503071030 51 19 7.0 17.0 0.00 0.00 0.00 75 1020.3
20260503055021 48 12 8.0 17.0 0.00 0.00 0.00 79 1020.1
20260503054024 47 10 6.0 11.0 0.00 0.00 0.00 79 1020.1
20260503053029 47 350 7.0 13.0 0.00 0.00 0.00 78 1020.0
20260503052017 47 4 7.0 13.0 0.00 0.00 0.00 79 1019.9
20260503051021 45 5 7.0 13.0 0.00 0.00 0.00 82 1019.9
20260503050026 44 354 6.0 15.0 0.00 0.00 0.00 81 1020.0
20260503045031 42 341 5.0 8.0 0.00 0.00 0.00 85 1019.9
20260503044019 38 329 4.0 10.0 0.00 0.00 0.00 91 1019.7
20260503043025 37 321 4.0 8.0 0.00 0.00 0.00 91 1019.7
20260503042030 37 330 4.0 8.0 0.00 0.00 0.00 92 1019.8
20260503041018 37 341 4.0 8.0 0.00 0.00 0.00 92 1019.6
20260503040023 37 331 4.0 7.0 0.00 0.00 0.00 92 1019.7
20260503035028 37 340 3.0 7.0 0.00 0.00 0.00 92 1019.6
20260503034053 36 337 3.0 7.0 0.00 0.00 0.00 94 1019.5